パンスターズ彗星

364P/PanSTARRS (2023)

English version
Home page
Updated on January 3, 2023

---------------------------------------------------------------------

・ プロフィール

・ 軌道要素

Epoch 2023 Feb. 25.0 TT = JDT 2460000.5
T 2023 May 14.01719 TT                                  Rudenko
q   0.8013040            (2000.0)            P               Q
n   0.20161954     Peri.  212.00966     -0.21364418     +0.96507536
a   2.8803657      Node    46.15487     -0.84612618     -0.10522993
e   0.7218048      Incl.   12.13497     -0.48828951     -0.23990876
P   4.89
>From 788 observations 2013 Feb. 1-2022 Dec. 25, mean residual 0".7.

・ 星図

・ 光度変化

        H = 16.5  G = 0.15                       [   ,-58]  (              〜2023年 3月17日)
        m1 = 16.0 + 5 logΔ + 25.0 log r(t - 5)  [-58, 74]  (2023年 3月17日〜2023年 7月27日)
        H = 16.5  G = 0.15                       [ 74,   ]  (2023年 7月27日〜              )

---------------------------------------------------------------------

軌道要素はM.P.E.C. 2022-Y232に掲載されたものです。
星図はステラナビゲータ Ver.10 (アストロアーツ) で作成したものです。
光度グラフはComet for Windowsで作成したものです。

---------------------------------------------------------------------

Copyright(C) Seiichi Yoshida (comet@aerith.net). All rights reserved.